This demonstration page uses our WeatherBlox Daily Observations layout. Learn more.

Left ArrowRight Arrow

44.8408, -93.29828

Hourly Observations for February 29, 2016

Temp ( °F °C ) Dew Point ( °F °C ) Humidity (%) Winds ( mph kmh ) Pressure ( in mb ) Visibility ( mi km ) Precip ( " mm )
12:53 am 00:53 Clear 29 -1.7 23 -5 78 78 SSW 9 15 29.77 1008 10 16 0.00 0.00
1:53 am 01:53 Partly Cloudy 30 -1.1 25 -3.9 82 82 SW 13 20 29.71 1006 10 16 0.00 0.00
2:53 am 02:53 Mostly Cloudy 32 0 26 -3.3 79 79 SW 10 17 29.68 1005 10 16 0.00 0.00
3:53 am 03:53 Cloudy 36 2.2 28 -2.2 73 73 SW 14 22 29.66 1004 10 16 0.00 0.00
4:53 am 04:53 Mostly Cloudy 37 2.8 29 -1.7 73 73 WSW 9 15 29.70 1006 10 16 0.00 0.00
5:53 am 05:53 Mostly Cloudy 39 3.9 29 -1.7 67 67 W 16 26 29.74 1007 10 16 0.00 0.00
6:17 am 06:17 Mostly Cloudy 39 3.9 29 -1.7 67 67 NW 23 37 29.77 1008 10 16 0.00 0.00
6:53 am 06:53 Cloudy 32 0 24 -4.4 73 73 NW 21 33 29.83 1010 10 16 0.00 0.00
7:21 am 07:21 Cloudy 29 -1.7 18 -7.8 63 63 NNW 26 43 29.91 1013 10 16 0.00 0.00
7:32 am 07:32 Cloudy 28 -2 18 -8 64 64 N 26 43 29.94 1014 10 16 0.00 0.00
7:53 am 07:53 Mostly Cloudy 24 -4.4 11 -11.7 57 57 NNW 26 43 29.93 1013 10 16 0.00 0.00
8:17 am 08:17 Mostly Cloudy 23 -5 6 -14.4 48 48 N 24 39 30.03 1017 10 16 0.00 0.00
8:53 am 08:53 Mostly Cloudy 23 -5 2 -16.7 40 40 N 15 24 30.01 1016 10 16 0.00 0.00
9:53 am 09:53 Mostly Cloudy 19 -7.2 -7 -21.7 31 31 N 18 30 30.05 1018 10 16 0.00 0.00
10:53 am 10:53 Partly Cloudy 21 -6.1 -4 -20 33 33 NNW 17 28 30.08 1019 10 16 0.00 0.00
11:53 am 11:53 Mostly Sunny 22 -5.6 -6 -21.1 29 29 N 12 19 30.09 1019 10 16 0.00 0.00
12:53 pm 12:53 Mostly Sunny 24 -4.4 -5 -20.6 27 27 NNE 12 19 30.09 1019 10 16 0.00 0.00
1:53 pm 13:53 Partly Cloudy 24 -4.4 -5 -20.6 27 27 NNE 15 24 30.08 1019 10 16 0.00 0.00
2:53 pm 14:53 Partly Cloudy 25 -3.9 -4 -20 28 28 NNE 14 22 30.07 1018 10 16 0.00 0.00
3:53 pm 15:53 Mostly Cloudy 25 -3.9 -3 -19.4 29 29 NE 12 19 30.08 1019 10 16 0.00 0.00
4:53 pm 16:53 Mostly Cloudy 24 -4.4 -3 -19.4 30 30 N 10 17 30.10 1019 10 16 0.00 0.00
5:53 pm 17:53 Cloudy 22 -5.6 -2 -18.9 35 35 NNE 12 19 30.11 1020 10 16 0.00 0.00
6:53 pm 18:53 Cloudy 22 -5.6 -2 -18.9 35 35 NNE 8 13 30.14 1021 10 16 0.00 0.00
7:53 pm 19:53 Cloudy 22 -5.6 -2 -18.9 35 35 N 8 13 30.16 1021 10 16 0.00 0.00
8:53 pm 20:53 Cloudy 22 -5.6 -2 -18.9 35 35 NNE 10 17 30.15 1021 10 16 0.00 0.00
9:53 pm 21:53 Cloudy 21 -6.1 -3 -19.4 34 34 NNE 13 20 30.14 1021 10 16 0.00 0.00
10:53 pm 22:53 Cloudy 20 -6.7 -2 -18.9 38 38 N 14 22 30.13 1020 10 16 0.00 0.00
11:53 pm 23:53 Cloudy 19 -7.2 -2 -18.9 39 39 NNE 13 20 30.14 1021 10 16 0.00 0.00

Powered by AerisWeather